Location: Seattle
(47.6064°N, 122.3308°W)
Time: 21:53:06
(UTC-08:00)

Vanguard 1 Rocket - All Passes

Search period start: 26 November 2020 00:00
Search period end: 06 December 2020 00:00
Orbit: 656 x 4221 km, 34.3° (Epoch: 26 November)

Date Brightness Start Highest point End Pass type
(mag) Time Alt. Az. Time Alt. Az. Time Alt. Az.
26 Nov - 00:24:27 10° SSW 00:45:20 33° SSE 01:01:39 10° E visible
26 Nov - 02:51:36 10° SW 03:14:30 49° S 03:28:39 10° ESE visible
26 Nov - 05:23:33 10° W 05:42:29 47° SSW 05:52:52 10° SE visible
26 Nov - 07:57:06 10° W 08:07:23 23° SW 08:14:04 10° S daylight
26 Nov - 23:14:02 10° S 23:32:04 25° SE 23:47:53 10° E visible
27 Nov - 01:37:47 10° SW 02:01:01 45° SSE 02:17:09 10° E visible
27 Nov - 04:08:12 10° WSW 04:30:02 52° S 04:42:30 10° ESE visible
27 Nov - 06:41:21 10° W 06:56:32 35° SSW 07:05:19 10° SSE visible
27 Nov - 22:06:34 10° SSE 22:19:14 16° SE 22:31:24 10° E visible
28 Nov - 00:25:09 10° SSW 00:47:22 38° SSE 01:04:54 10° E visible
28 Nov - 02:53:18 10° WSW 03:16:54 52° S 03:31:36 10° ESE visible
28 Nov - 05:25:42 10° W 05:44:55 45° SSW 05:55:39 10° SE visible
28 Nov - 08:00:06 10° W 08:09:31 20° SW 08:16:00 10° S daylight
28 Nov - 23:14:01 10° SSW 23:33:53 30° SE 23:51:33 10° E visible
29 Nov - 01:39:13 10° SW 02:03:15 49° SSE 02:20:08 10° E visible
29 Nov - 04:10:13 10° WSW 04:32:28 52° S 04:45:22 10° ESE visible
29 Nov - 06:43:47 10° W 06:58:46 32° SW 07:07:44 10° SSE visible
29 Nov - 22:04:59 10° S 22:20:51 21° SE 22:36:22 10° E visible
30 Nov - 00:26:15 10° SW 00:49:23 43° SSE 01:07:58 10° E visible
30 Nov - 02:55:10 10° WSW 03:19:15 54° S 03:34:30 10° ESE visible
30 Nov - 05:27:54 10° W 05:47:14 43° SSW 05:58:19 10° SE visible
30 Nov - 08:03:29 10° W 08:11:30 16° SW 08:17:25 10° SSW daylight
30 Nov - 21:00:51 10° SE 21:08:29 12° ESE 21:16:15 10° ESE visible
30 Nov - 23:14:38 10° SSW 23:35:40 36° SE 23:54:50 10° E visible
01 Dec - 01:40:54 10° SW 02:05:28 53° S 02:23:02 10° E visible
01 Dec - 04:12:18 10° W 04:34:49 51° SSW 04:48:08 10° SE visible
01 Dec - 06:46:21 10° W 07:00:51 28° SW 07:09:57 10° SSE visible
01 Dec - 22:04:41 10° S 22:22:27 26° SE 22:40:18 10° E visible
02 Dec - 00:27:41 10° SW 00:51:24 48° SSE 01:10:52 10° E visible
02 Dec - 02:57:10 10° WSW 03:21:34 55° S 03:37:19 10° ESE visible
02 Dec - 05:30:11 10° W 05:49:25 40° SSW 06:00:49 10° SSE visible
02 Dec - 08:07:46 10° WSW 08:13:21 13° WSW 08:17:54 10° SW daylight
02 Dec - 20:57:30 10° SSE 21:09:54 17° SE 21:23:01 10° E visible
02 Dec - 23:15:42 10° SSW 23:37:28 41° SSE 23:57:52 10° E visible
03 Dec - 01:42:47 10° WSW 02:07:40 55° S 02:25:51 10° ESE visible
03 Dec - 04:14:28 10° W 04:37:04 49° SSW 04:50:48 10° SE visible
03 Dec - 06:49:07 10° W 07:02:47 24° SW 07:11:50 10° S visible
03 Dec - 22:05:10 10° SSW 22:24:02 32° SE 22:43:41 10° E visible
04 Dec - 00:29:24 10° SW 00:53:26 52° SSE 01:13:41 10° E visible
04 Dec - 02:59:16 10° WSW 03:23:49 55° S 03:40:03 10° ESE visible
04 Dec - 05:32:33 10° W 05:51:27 36° SW 06:03:09 10° SSE visible
04 Dec - 20:56:35 10° S 21:11:19 22° SE 21:27:36 10° E visible
04 Dec - 23:17:09 10° SW 23:39:17 45° SSE 00:00:43 10° E visible
05 Dec - 01:44:50 10° WSW 02:09:51 57° S 02:28:36 10° ESE visible
05 Dec - 04:16:41 10° W 04:39:12 46° SSW 04:53:20 10° SE visible
05 Dec - 06:52:13 10° W 07:04:33 20° SW 07:13:17 10° S visible
05 Dec - 19:52:59 10° SE 19:59:25 12° ESE 20:06:18 10° ESE visible
05 Dec - 22:06:11 10° SSW 22:25:38 36° SE 22:46:44 10° E visible
